START_TIME,STEP,MOV.,M34,t_acc.,L5,t_acc.,L18,t_acc.,L14,t_acc.
1979-07-24 06:00:24.200 ,0,1,0.,12.0,0.,12.0,0.,12.0,0.,12.0
1979-07-24 06:00:36.200 ,0,1,0.,12.0,0.,12.0,0.,12.0,0.,12.0
1979-07-24 06:00:48.200 ,3,1,1.,12.0,0.,12.0,0.,12.0,0.,12.0
1979-07-24 06:01:00.200 ,3,1,0.,12.0,0.,12.0,0.,12.0,0.,12.0
1979-07-24 06:01:12.200 ,7,1,0.,12.0,0.,12.0,0.,12.0,0.,12.0
1979-07-24 06:01:24.200 ,7,1,0.,12.0,0.,12.0,0.,12.0,0.,12.0
1979-07-24 06:01:36.200 ,4,1,0.,12.0,0.,12.0,0.,12.0,0.,12.0
1979-07-24 06:01:48.200 ,4,1,0.,12.0,0.,12.0,0.,12.0,0.,12.0
1979-07-24 06:02:00.200 ,0,1,0.,12.0,0.,12.0,0.,12.0,0.,12.0
1979-07-24 06:02:12.200 ,0,1,0.,12.0,0.,12.0,0.,12.0,0.,12.0
1979-07-24 06:02:24.200 ,3,1,0.,12.0,0.,12.0,0.,12.0,0.,12.0
1979-07-24 06:02:36.200 ,3,1,0.,12.0,0.,12.0,0.,12.0,0.,12.0
1979-07-24 06:02:48.200 ,7,1,0.,12.0,0.,12.0,0.,12.0,0.,12.0
1979-07-24 06:03:00.200 ,7,1,0.,12.0,0.,12.0,0.,12.0,0.,12.0
1979-07-24 06:03:12.200 ,4,1,0.,12.0,0.,12.0,0.,12.0,0.,12.0
1979-07-24 06:03:24.200 ,4,1,0.,12.0,0.,12.0,0.,12.0,0.,12.0
1979-07-24 06:03:36.200 ,0,1,0.,12.0,0.,12.0,0.,12.0,0.,12.0
1979-07-24 06:03:48.200 ,0,1,0.,12.0,0.,12.0,0.,12.0,0.,12.0
1979-07-24 06:04:00.200 ,3,1,0.,12.0,0.,12.0,0.,12.0,0.,12.0
1979-07-24 06:04:12.200 ,3,1,0.,12.0,0.,12.0,0.,12.0,0.,12.0
1979-07-24 06:04:24.200 ,7,1,0.,12.0,0.,12.0,0.,12.0,0.,12.0
1979-07-24 06:04:36.200 ,7,1,0.,12.0,0.,12.0,0.,12.0,0.,12.0
1979-07-24 06:04:48.200 ,4,1,0.,12.0,0.,12.0,0.,12.0,0.,12.0
1979-07-24 06:05:00.200 ,4,1,0.,12.0,0.,12.0,0.,12.0,0.,12.0
1979-07-24 06:05:12.200 ,0,1,0.,12.0,0.,12.0,0.,12.0,0.,12.0
1979-07-24 06:05:24.200 ,0,1,1.,12.0,0.,12.0,0.,12.0,0.,12.0
1979-07-24 06:05:36.200 ,0,0,0.,12.0,0.,12.0,0.,12.0,0.,12.0
1979-07-24 06:05:48.200 ,0,0,1.,12.0,0.,12.0,0.,12.0,0.,12.0
1979-07-24 06:06:00.200 ,0,0,0.,12.0,0.,12.0,0.,12.0,0.,12.0
1979-07-24 06:06:12.200 ,0,0,0.,12.0,0.,12.0,0.,12.0,0.,12.0
1979-07-24 06:06:24.200 ,5,1,0.,12.0,0.,12.0,0.,12.0,0.,12.0
1979-07-24 06:06:36.200 ,5,1,0.,12.0,0.,12.0,0.,12.0,0.,12.0
1979-07-24 06:06:48.200 ,5,0,0.,12.0,0.,12.0,0.,12.0,0.,12.0
1979-07-24 06:07:00.200 ,5,0,0.,12.0,0.,12.0,0.,12.0,0.,12.0
1979-07-24 06:07:12.200 ,4,1,0.,12.0,0.,12.0,0.,12.0,0.,12.0
1979-07-24 06:07:24.200 ,4,1,0.,12.0,0.,12.0,0.,12.0,0.,12.0
1979-07-24 06:07:36.200 ,4,0,0.,12.0,0.,12.0,0.,12.0,0.,12.0
1979-07-24 06:07:48.200 ,4,0,0.,12.0,0.,12.0,0.,12.0,0.,12.0
1979-07-24 06:08:00.200 ,3,1,0.,12.0,0.,12.0,0.,12.0,0.,12.0
1979-07-24 06:08:12.200 ,3,1,0.,12.0,0.,12.0,0.,12.0,0.,12.0
1979-07-24 06:08:24.200 ,3,0,0.,12.0,0.,12.0,0.,12.0,0.,12.0
1979-07-24 06:08:36.200 ,3,0,0.,12.0,0.,12.0,0.,12.0,0.,12.0
1979-07-24 06:08:48.200 ,2,1,0.,12.0,0.,12.0,0.,12.0,0.,12.0
1979-07-24 06:09:00.200 ,2,1,0.,12.0,0.,12.0,0.,12.0,0.,12.0
1979-07-24 06:09:12.200 ,2,0,0.,12.0,0.,12.0,0.,12.0,0.,12.0
1979-07-24 06:09:24.200 ,2,0,1.,12.0,0.,12.0,0.,12.0,0.,12.0
1979-07-24 06:09:36.200 ,1,1,0.,12.0,0.,12.0,0.,12.0,0.,12.0
1979-07-24 06:09:48.200 ,1,1,0.,12.0,0.,12.0,0.,12.0,0.,12.0
1979-07-24 06:10:00.200 ,1,0,0.,12.0,0.,12.0,0.,12.0,0.,12.0
1979-07-24 06:10:12.200 ,1,0,0.,12.0,0.,12.0,0.,12.0,0.,12.0
1979-07-24 06:10:24.200 ,0,1,0.,12.0,0.,12.0,0.,12.0,0.,12.0
1979-07-24 06:10:36.200 ,0,1,0.,12.0,0.,12.0,0.,12.0,0.,12.0
1979-07-24 06:10:48.200 ,0,0,0.,12.0,0.,12.0,0.,12.0,0.,12.0
1979-07-24 06:11:00.200 ,0,0,1.,12.0,0.,12.0,0.,12.0,0.,12.0
1979-07-24 06:11:12.200 ,0,1,1.,12.0,0.,12.0,0.,12.0,0.,12.0
1979-07-24 06:11:24.200 ,0,1,0.,12.0,0.,12.0,0.,12.0,0.,12.0
1979-07-24 06:11:36.200 ,0,0,0.,12.0,0.,12.0,0.,12.0,0.,12.0
1979-07-24 06:11:48.200 ,0,0,0.,12.0,0.,12.0,0.,12.0,0.,12.0
1979-07-24 06:12:00.200 ,1,1,1.,12.0,0.,12.0,0.,12.0,0.,12.0
1979-07-24 06:12:12.200 ,1,1,0.,12.0,0.,12.0,0.,12.0,0.,12.0
1979-07-24 06:12:24.200 ,1,0,0.,12.0,0.,12.0,0.,12.0,0.,12.0
1979-07-24 06:12:36.200 ,1,0,0.,12.0,0.,12.0,0.,12.0,0.,12.0
1979-07-24 06:12:48.200 ,2,1,0.,12.0,0.,12.0,0.,12.0,0.,12.0
1979-07-24 06:13:00.200 ,2,1,0.,12.0,0.,12.0,0.,12.0,0.,12.0
1979-07-24 06:13:12.200 ,2,0,0.,12.0,0.,12.0,0.,12.0,0.,12.0
1979-07-24 06:13:24.200 ,2,0,0.,12.0,0.,12.0,0.,12.0,0.,12.0
1979-07-24 06:13:36.200 ,3,1,0.,12.0,0.,12.0,0.,12.0,0.,12.0
1979-07-24 06:13:48.200 ,3,1,0.,12.0,0.,12.0,0.,12.0,0.,12.0
1979-07-24 06:14:00.200 ,3,0,0.,12.0,0.,12.0,0.,12.0,0.,12.0
1979-07-24 06:14:12.200 ,3,0,0.,12.0,0.,12.0,0.,12.0,0.,12.0
1979-07-24 06:14:24.200 ,4,1,0.,12.0,0.,12.0,0.,12.0,0.,12.0
1979-07-24 06:14:36.200 ,4,1,0.,12.0,0.,12.0,0.,12.0,0.,12.0
1979-07-24 06:14:48.200 ,4,0,0.,12.0,0.,12.0,0.,12.0,0.,12.0
1979-07-24 06:15:00.200 ,4,0,0.,12.0,0.,12.0,0.,12.0,0.,12.0
1979-07-24 06:15:12.200 ,5,1,1.,12.0,0.,12.0,0.,12.0,0.,12.0
1979-07-24 06:15:24.200 ,5,1,1.,12.0,0.,12.0,0.,12.0,0.,12.0
1979-07-24 06:15:36.200 ,5,0,0.,12.0,0.,12.0,0.,12.0,0.,12.0
1979-07-24 06:15:48.200 ,5,0,0.,12.0,0.,12.0,0.,12.0,0.,12.0
1979-07-24 06:16:00.200 ,6,1,0.,12.0,0.,12.0,0.,12.0,0.,12.0
1979-07-24 06:16:12.200 ,6,1,0.,12.0,0.,12.0,0.,12.0,0.,12.0
1979-07-24 06:16:24.200 ,6,0,0.,12.0,0.,12.0,0.,12.0,0.,12.0
1979-07-24 06:16:36.200 ,6,0,0.,12.0,0.,12.0,0.,12.0,0.,12.0
1979-07-24 06:16:48.200 ,7,1,0.,12.0,0.,12.0,0.,12.0,0.,12.0
1979-07-24 06:17:00.200 ,7,1,0.,12.0,0.,12.0,0.,12.0,0.,12.0
1979-07-24 06:17:12.200 ,7,0,0.,12.0,0.,12.0,0.,12.0,0.,12.0
1979-07-24 06:17:24.200 ,7,0,0.,12.0,0.,12.0,0.,12.0,0.,12.0
1979-07-24 06:17:36.200 ,7,1,0.,12.0,0.,12.0,0.,12.0,0.,12.0
1979-07-24 06:17:48.200 ,7,1,0.,12.0,0.,12.0,0.,12.0,0.,12.0
1979-07-24 06:18:00.200 ,7,0,0.,12.0,0.,12.0,0.,12.0,0.,12.0
1979-07-24 06:18:12.200 ,7,0,0.,12.0,0.,12.0,0.,12.0,0.,12.0
1979-07-24 06:18:24.200 ,6,1,0.,12.0,0.,12.0,0.,12.0,0.,12.0
1979-07-24 06:18:36.200 ,6,1,0.,12.0,0.,12.0,0.,12.0,0.,12.0
1979-07-24 06:18:48.200 ,6,0,0.,12.0,0.,12.0,0.,12.0,0.,12.0
1979-07-24 06:19:00.200 ,6,0,0.,12.0,0.,12.0,0.,12.0,0.,12.0
1979-07-24 06:19:12.200 ,5,1,1.,12.0,0.,12.0,0.,12.0,0.,12.0
1979-07-24 06:19:24.200 ,5,1,1.,12.0,0.,12.0,0.,12.0,0.,12.0
1979-07-24 06:19:36.200 ,5,0,0.,12.0,0.,12.0,0.,12.0,0.,12.0
1979-07-24 06:19:48.200 ,5,0,1.,12.0,0.,12.0,0.,12.0,0.,12.0
1979-07-24 06:20:00.200 ,4,1,0.,12.0,0.,12.0,0.,12.0,0.,12.0
1979-07-24 06:20:12.200 ,4,1,0.,12.0,0.,12.0,0.,12.0,0.,12.0
1979-07-24 06:20:24.200 ,4,0,0.,12.0,0.,12.0,0.,12.0,0.,12.0
1979-07-24 06:20:36.200 ,4,0,0.,12.0,0.,12.0,0.,12.0,0.,12.0
1979-07-24 06:20:48.200 ,3,1,0.,12.0,0.,12.0,0.,12.0,0.,12.0
1979-07-24 06:21:00.200 ,3,1,0.,12.0,0.,12.0,0.,12.0,0.,12.0
1979-07-24 06:21:12.200 ,3,0,0.,12.0,0.,12.0,0.,12.0,0.,12.0
1979-07-24 06:21:24.200 ,3,0,0.,12.0,0.,12.0,0.,12.0,0.,12.0
1979-07-24 06:21:36.200 ,2,1,0.,12.0,0.,12.0,0.,12.0,0.,12.0
1979-07-24 06:21:48.200 ,2,1,0.,12.0,0.,12.0,0.,12.0,0.,12.0
1979-07-24 06:22:00.200 ,2,0,0.,12.0,0.,12.0,0.,12.0,0.,12.0
1979-07-24 06:22:12.200 ,2,0,0.,12.0,0.,12.0,0.,12.0,0.,12.0
1979-07-24 06:22:24.200 ,1,1,0.,12.0,0.,12.0,0.,12.0,0.,12.0
1979-07-24 06:22:36.200 ,1,1,0.,12.0,0.,12.0,0.,12.0,0.,12.0
1979-07-24 06:22:48.200 ,1,0,0.,12.0,0.,12.0,0.,12.0,0.,12.0
1979-07-24 06:23:00.200 ,1,0,0.,12.0,0.,12.0,0.,12.0,0.,12.0
1979-07-24 06:23:12.200 ,0,1,0.,12.0,0.,12.0,0.,12.0,0.,12.0
1979-07-24 06:23:24.200 ,0,1,0.,12.0,0.,12.0,0.,12.0,0.,12.0
1979-07-24 06:23:36.200 ,0,0,0.,12.0,0.,12.0,0.,12.0,0.,12.0
1979-07-24 06:23:48.200 ,0,0,0.,12.0,0.,12.0,0.,12.0,0.,12.0
1979-07-24 06:24:00.200 ,0,1,0.,12.0,0.,12.0,0.,12.0,0.,12.0
1979-07-24 06:24:12.200 ,0,1,0.,12.0,0.,12.0,0.,12.0,0.,12.0
1979-07-24 06:24:24.200 ,0,0,0.,12.0,0.,12.0,0.,12.0,0.,12.0
1979-07-24 06:24:36.200 ,0,0,0.,12.0,0.,12.0,0.,12.0,0.,12.0
1979-07-24 06:24:48.200 ,1,1,0.,12.0,0.,12.0,0.,12.0,0.,12.0
1979-07-24 06:25:00.200 ,1,1,0.,12.0,0.,12.0,0.,12.0,0.,12.0
1979-07-24 06:25:12.200 ,1,0,0.,12.0,0.,12.0,0.,12.0,0.,12.0
1979-07-24 06:25:24.200 ,1,0,0.,12.0,0.,12.0,0.,12.0,0.,12.0
1979-07-24 06:25:36.200 ,2,1,0.,12.0,0.,12.0,0.,12.0,0.,12.0
1979-07-24 06:25:48.200 ,2,1,0.,12.0,0.,12.0,0.,12.0,0.,12.0
1979-07-24 06:26:00.200 ,2,0,0.,12.0,0.,12.0,0.,12.0,0.,12.0
1979-07-24 06:26:12.200 ,2,0,0.,12.0,0.,12.0,0.,12.0,0.,12.0
1979-07-24 06:26:24.200 ,3,1,0.,12.0,0.,12.0,0.,12.0,0.,12.0
1979-07-24 06:26:36.200 ,3,1,0.,12.0,0.,12.0,0.,12.0,0.,12.0
1979-07-24 06:26:48.200 ,3,0,0.,12.0,0.,12.0,0.,12.0,0.,12.0
1979-07-24 06:27:00.200 ,3,0,0.,12.0,0.,12.0,0.,12.0,0.,12.0
1979-07-24 06:27:12.200 ,4,1,0.,12.0,0.,12.0,0.,12.0,0.,12.0
1979-07-24 06:27:24.200 ,4,1,0.,12.0,0.,12.0,0.,12.0,0.,12.0
1979-07-24 06:27:36.200 ,4,0,0.,12.0,0.,12.0,0.,12.0,0.,12.0
1979-07-24 06:27:48.200 ,4,0,0.,12.0,0.,12.0,0.,12.0,0.,12.0
1979-07-24 06:28:00.200 ,5,1,0.,12.0,0.,12.0,0.,12.0,0.,12.0
1979-07-24 06:28:12.200 ,5,1,0.,12.0,0.,12.0,0.,12.0,0.,12.0
1979-07-24 06:28:24.200 ,5,0,0.,12.0,0.,12.0,0.,12.0,0.,12.0
1979-07-24 06:28:36.200 ,5,0,0.,12.0,0.,12.0,0.,12.0,0.,12.0
1979-07-24 06:28:48.200 ,6,1,0.,12.0,0.,12.0,0.,12.0,0.,12.0
1979-07-24 06:29:00.200 ,6,1,0.,12.0,0.,12.0,0.,12.0,0.,12.0
1979-07-24 06:29:12.200 ,6,0,0.,12.0,0.,12.0,0.,12.0,0.,12.0
1979-07-24 06:29:24.200 ,6,0,1.,12.0,0.,12.0,0.,12.0,0.,12.0
1979-07-24 06:29:36.200 ,7,1,0.,12.0,0.,12.0,0.,12.0,0.,12.0
1979-07-24 06:29:48.200 ,7,1,0.,12.0,0.,12.0,0.,12.0,0.,12.0
1979-07-24 06:30:00.200 ,7,0,0.,12.0,0.,12.0,0.,12.0,0.,12.0
1979-07-24 06:30:12.200 ,7,0,0.,12.0,0.,12.0,0.,12.0,0.,12.0
1979-07-24 06:30:24.200 ,7,1,0.,12.0,0.,12.0,0.,12.0,0.,12.0
1979-07-24 06:30:36.200 ,7,1,0.,12.0,0.,12.0,0.,12.0,0.,12.0
1979-07-24 06:30:48.200 ,7,0,0.,12.0,0.,12.0,0.,12.0,0.,12.0
1979-07-24 06:31:00.200 ,7,0,0.,12.0,0.,12.0,0.,12.0,0.,12.0
1979-07-24 06:31:12.200 ,6,1,0.,12.0,0.,12.0,0.,12.0,0.,12.0
1979-07-24 06:31:24.200 ,6,1,0.,12.0,0.,12.0,0.,12.0,0.,12.0
1979-07-24 06:31:36.200 ,6,0,0.,12.0,0.,12.0,0.,12.0,0.,12.0
1979-07-24 06:31:48.200 ,6,0,0.,12.0,0.,12.0,0.,12.0,0.,12.0
1979-07-24 06:32:00.200 ,5,1,0.,12.0,0.,12.0,0.,12.0,0.,12.0
1979-07-24 06:32:12.200 ,5,1,0.,12.0,0.,12.0,0.,12.0,0.,12.0
1979-07-24 06:32:24.200 ,5,0,0.,12.0,0.,12.0,0.,12.0,0.,12.0
1979-07-24 06:32:36.200 ,5,0,0.,12.0,0.,12.0,0.,12.0,0.,12.0
1979-07-24 06:32:48.200 ,4,1,0.,12.0,0.,12.0,0.,12.0,0.,12.0
1979-07-24 06:33:00.200 ,4,1,0.,12.0,0.,12.0,0.,12.0,0.,12.0
1979-07-24 06:33:12.200 ,4,0,0.,12.0,0.,12.0,0.,12.0,0.,12.0
1979-07-24 06:33:24.200 ,4,0,0.,12.0,0.,12.0,0.,12.0,0.,12.0
1979-07-24 06:33:36.200 ,3,1,0.,12.0,0.,12.0,0.,12.0,0.,12.0
1979-07-24 06:33:48.200 ,3,1,0.,12.0,0.,12.0,0.,12.0,0.,12.0
1979-07-24 06:34:00.200 ,3,0,0.,12.0,0.,12.0,0.,12.0,0.,12.0
1979-07-24 06:34:12.200 ,3,0,0.,12.0,0.,12.0,0.,12.0,0.,12.0
1979-07-24 06:34:24.200 ,2,1,0.,12.0,0.,12.0,0.,12.0,0.,12.0
1979-07-24 06:34:36.200 ,2,1,0.,12.0,0.,12.0,0.,12.0,0.,12.0
1979-07-24 06:34:48.200 ,2,0,0.,12.0,0.,12.0,0.,12.0,0.,12.0
1979-07-24 06:35:00.200 ,2,0,1.,12.0,0.,12.0,0.,12.0,0.,12.0
1979-07-24 06:35:12.200 ,1,1,0.,12.0,0.,12.0,0.,12.0,0.,12.0
1979-07-24 06:35:24.200 ,1,1,0.,12.0,0.,12.0,0.,12.0,0.,12.0
1979-07-24 06:35:36.200 ,1,0,0.,12.0,0.,12.0,0.,12.0,0.,12.0
1979-07-24 06:35:48.200 ,1,0,0.,12.0,0.,12.0,0.,12.0,0.,12.0
1979-07-24 06:36:00.200 ,0,1,0.,12.0,0.,12.0,0.,12.0,0.,12.0
1979-07-24 06:36:12.200 ,0,1,0.,12.0,0.,12.0,0.,12.0,0.,12.0
1979-07-24 06:36:24.200 ,0,0,0.,12.0,0.,12.0,0.,12.0,0.,12.0
1979-07-24 06:36:36.200 ,0,0,0.,12.0,0.,12.0,0.,12.0,0.,12.0
1979-07-24 06:36:48.200 ,0,1,0.,12.0,0.,12.0,0.,12.0,0.,12.0
1979-07-24 06:37:00.200 ,0,1,0.,12.0,0.,12.0,0.,12.0,0.,12.0
1979-07-24 06:37:12.200 ,0,0,0.,12.0,0.,12.0,0.,12.0,0.,12.0
1979-07-24 06:37:24.200 ,0,0,1.,12.0,0.,12.0,0.,12.0,0.,12.0
1979-07-24 06:37:36.200 ,1,1,1.,12.0,0.,12.0,0.,12.0,0.,12.0
1979-07-24 06:37:48.200 ,1,1,0.,12.0,0.,12.0,0.,12.0,0.,12.0
1979-07-24 06:38:00.200 ,1,0,0.,12.0,0.,12.0,0.,12.0,0.,12.0
1979-07-24 06:38:12.200 ,1,0,0.,12.0,0.,12.0,0.,12.0,0.,12.0
1979-07-24 06:38:24.200 ,2,1,1.,12.0,0.,12.0,0.,12.0,0.,12.0
1979-07-24 06:38:36.200 ,2,1,0.,12.0,0.,12.0,0.,12.0,0.,12.0
1979-07-24 06:38:48.200 ,2,0,0.,12.0,0.,12.0,0.,12.0,0.,12.0
1979-07-24 06:39:00.200 ,2,0,0.,12.0,0.,12.0,0.,12.0,0.,12.0
1979-07-24 06:39:12.200 ,3,1,1.,12.0,0.,12.0,0.,12.0,0.,12.0
1979-07-24 06:39:24.200 ,3,1,1.,12.0,0.,12.0,0.,12.0,0.,12.0
1979-07-24 06:39:36.200 ,3,0,1.,12.0,0.,12.0,0.,12.0,0.,12.0
1979-07-24 06:39:48.200 ,3,0,0.,12.0,0.,12.0,0.,12.0,0.,12.0
1979-07-24 06:40:00.200 ,4,1,0.,12.0,0.,12.0,0.,12.0,0.,12.0
1979-07-24 06:40:12.200 ,4,1,0.,12.0,0.,12.0,0.,12.0,0.,12.0
1979-07-24 06:40:24.200 ,4,0,0.,12.0,0.,12.0,0.,12.0,0.,12.0
1979-07-24 06:40:36.200 ,4,0,0.,12.0,0.,12.0,0.,12.0,0.,12.0
1979-07-24 06:40:48.200 ,5,1,0.,12.0,0.,12.0,0.,12.0,0.,12.0
1979-07-24 06:41:00.200 ,5,1,0.,12.0,0.,12.0,0.,12.0,0.,12.0
1979-07-24 06:41:12.200 ,5,0,0.,12.0,0.,12.0,0.,12.0,0.,12.0
1979-07-24 06:41:24.200 ,5,0,1.,12.0,0.,12.0,0.,12.0,0.,12.0
1979-07-24 06:41:36.200 ,6,1,0.,12.0,0.,12.0,0.,12.0,0.,12.0
1979-07-24 06:41:48.200 ,6,1,0.,12.0,0.,12.0,0.,12.0,0.,12.0
1979-07-24 06:42:00.200 ,6,0,0.,12.0,0.,12.0,0.,12.0,0.,12.0
1979-07-24 06:42:12.200 ,6,0,0.,12.0,0.,12.0,0.,12.0,0.,12.0
1979-07-24 06:42:24.200 ,7,0,0.,12.0,0.,12.0,0.,12.0,0.,12.0
1979-07-24 06:42:36.200 ,7,0,0.,12.0,0.,12.0,0.,12.0,0.,12.0
1979-07-24 06:42:48.200 ,7,0,0.,12.0,0.,12.0,0.,12.0,0.,12.0
1979-07-24 06:43:00.200 ,7,0,0.,12.0,0.,12.0,0.,12.0,0.,12.0
1979-07-24 06:43:12.200 ,4,1,0.,12.0,0.,12.0,0.,12.0,0.,12.0
1979-07-24 06:43:24.200 ,4,1,0.,12.0,0.,12.0,0.,12.0,0.,12.0
1979-07-24 06:43:36.200 ,0,1,0.,12.0,0.,12.0,0.,12.0,0.,12.0
1979-07-24 06:43:48.200 ,0,1,0.,12.0,0.,12.0,0.,12.0,0.,12.0
1979-07-24 06:44:00.200 ,3,1,0.,12.0,0.,12.0,0.,12.0,0.,12.0
1979-07-24 06:44:12.200 ,3,1,0.,12.0,0.,12.0,0.,12.0,0.,12.0
1979-07-24 06:44:24.200 ,7,1,0.,12.0,0.,12.0,0.,12.0,0.,12.0
1979-07-24 06:44:36.200 ,7,1,1.,12.0,0.,12.0,0.,12.0,0.,12.0
1979-07-24 06:44:48.200 ,4,1,0.,12.0,0.,12.0,0.,12.0,0.,12.0
1979-07-24 06:45:00.200 ,4,1,0.,12.0,0.,12.0,0.,12.0,0.,12.0
1979-07-24 06:45:12.200 ,0,1,0.,12.0,0.,12.0,0.,12.0,0.,12.0
1979-07-24 06:45:24.200 ,0,1,1.,12.0,0.,12.0,0.,12.0,0.,12.0
1979-07-24 06:45:36.200 ,3,1,1.,12.0,0.,12.0,0.,12.0,0.,12.0
1979-07-24 06:45:48.200 ,3,1,0.,12.0,0.,12.0,0.,12.0,0.,12.0
1979-07-24 06:46:00.200 ,7,1,0.,12.0,0.,12.0,0.,12.0,0.,12.0
1979-07-24 06:46:12.200 ,7,1,0.,12.0,0.,12.0,0.,12.0,0.,12.0
1979-07-24 06:46:24.200 ,4,1,0.,12.0,0.,12.0,0.,12.0,0.,12.0
1979-07-24 06:46:36.200 ,4,1,0.,12.0,0.,12.0,0.,12.0,0.,12.0
1979-07-24 06:46:48.200 ,0,1,0.,12.0,0.,12.0,0.,12.0,0.,12.0
1979-07-24 06:47:00.200 ,0,1,0.,12.0,0.,12.0,0.,12.0,0.,12.0
1979-07-24 06:47:12.200 ,0,0,0.,12.0,0.,12.0,0.,12.0,0.,12.0
1979-07-24 06:47:24.200 ,0,0,,0,,0,,0,,0
1979-07-24 06:47:36.200 ,0,0,,0,,0,,0,,0
1979-07-24 06:47:48.200 ,0,0,,0,,0,,0,,0
1979-07-24 06:47:36.200 ,7,1,0.,12.0,0.,12.0,0.,12.0,0.,12.0
1979-07-24 06:47:48.200 ,7,1,0.,12.0,0.,12.0,0.,12.0,0.,12.0
1979-07-24 06:48:00.200 ,4,1,0.,12.0,0.,12.0,0.,12.0,0.,12.0
1979-07-24 06:48:12.200 ,4,1,0.,12.0,0.,12.0,0.,12.0,0.,12.0
1979-07-24 06:48:24.200 ,0,1,0.,12.0,0.,12.0,0.,12.0,0.,12.0
1979-07-24 06:48:36.200 ,0,1,1.,12.0,0.,12.0,0.,12.0,0.,12.0
1979-07-24 06:48:48.200 ,3,1,0.,12.0,0.,12.0,0.,12.0,0.,12.0
1979-07-24 06:49:00.200 ,3,1,0.,12.0,0.,12.0,0.,12.0,1.,12.0
1979-07-24 06:49:12.200 ,7,1,0.,12.0,0.,12.0,0.,12.0,0.,12.0
1979-07-24 06:49:24.200 ,7,1,0.,12.0,0.,12.0,0.,12.0,0.,12.0
1979-07-24 06:49:36.200 ,4,1,0.,12.0,0.,12.0,0.,12.0,0.,12.0
1979-07-24 06:49:48.200 ,4,1,1.,12.0,0.,12.0,0.,12.0,0.,12.0
1979-07-24 06:50:00.200 ,0,1,0.,12.0,0.,12.0,0.,12.0,0.,12.0
1979-07-24 06:50:12.200 ,0,1,0.,12.0,0.,12.0,0.,12.0,0.,12.0
1979-07-24 06:50:24.200 ,3,1,0.,12.0,0.,12.0,0.,12.0,0.,12.0
1979-07-24 06:50:36.200 ,3,1,0.,12.0,0.,12.0,0.,12.0,0.,12.0
1979-07-24 06:50:48.200 ,7,1,0.,12.0,0.,12.0,0.,12.0,0.,12.0
1979-07-24 06:51:00.200 ,7,1,0.,12.0,0.,12.0,0.,12.0,0.,12.0
1979-07-24 06:51:12.200 ,4,1,0.,12.0,0.,12.0,0.,12.0,0.,12.0
1979-07-24 06:51:24.200 ,4,1,0.,12.0,0.,12.0,0.,12.0,0.,12.0
1979-07-24 06:51:36.200 ,0,1,0.,12.0,0.,12.0,0.,12.0,0.,12.0
1979-07-24 06:51:48.200 ,0,1,0.,12.0,0.,12.0,0.,12.0,0.,12.0
1979-07-24 06:52:00.200 ,3,1,0.,12.0,0.,12.0,0.,12.0,0.,12.0
1979-07-24 06:52:12.200 ,3,1,1.,12.0,0.,12.0,0.,12.0,0.,12.0
1979-07-24 06:52:24.200 ,7,1,0.,12.0,0.,12.0,0.,12.0,0.,12.0
1979-07-24 06:52:36.200 ,7,1,0.,12.0,0.,12.0,0.,12.0,0.,12.0
1979-07-24 06:52:48.200 ,4,1,0.,12.0,0.,12.0,0.,12.0,0.,12.0
1979-07-24 06:53:00.200 ,4,1,0.,12.0,0.,12.0,0.,12.0,0.,12.0
1979-07-24 06:53:12.200 ,0,1,0.,12.0,0.,12.0,0.,12.0,0.,12.0
1979-07-24 06:53:24.200 ,0,1,0.,12.0,0.,12.0,0.,12.0,0.,12.0
1979-07-24 06:54:24.200 ,0,0,0.,12.0,0.,12.0,0.,12.0,0.,12.0
1979-07-24 06:54:36.200 ,0,0,0.,12.0,0.,12.0,0.,12.0,0.,12.0
1979-07-24 06:54:48.200 ,0,0,0.,12.0,0.,12.0,0.,12.0,0.,12.0
1979-07-24 06:55:00.200 ,0,0,0.,12.0,0.,12.0,0.,12.0,0.,12.0
1979-07-24 06:55:12.200 ,4,1,0.,12.0,0.,12.0,0.,12.0,0.,12.0
1979-07-24 06:55:24.200 ,4,1,0.,12.0,0.,12.0,0.,12.0,0.,12.0
1979-07-24 06:55:36.200 ,4,0,0.,12.0,0.,12.0,0.,12.0,0.,12.0
1979-07-24 06:55:48.200 ,4,0,0.,12.0,0.,12.0,0.,12.0,0.,12.0
1979-07-24 06:56:00.200 ,3,1,0.,12.0,0.,12.0,0.,12.0,0.,12.0
1979-07-24 06:56:12.200 ,3,1,0.,12.0,0.,12.0,0.,12.0,0.,12.0
1979-07-24 06:56:24.200 ,3,0,0.,12.0,0.,12.0,0.,12.0,0.,12.0
1979-07-24 06:56:36.200 ,3,0,0.,12.0,0.,12.0,0.,12.0,0.,12.0
1979-07-24 06:56:48.200 ,2,1,0.,12.0,0.,12.0,0.,12.0,0.,12.0
1979-07-24 06:57:00.200 ,2,1,0.,12.0,0.,12.0,0.,12.0,0.,12.0
1979-07-24 06:57:12.200 ,2,0,0.,12.0,0.,12.0,0.,12.0,0.,12.0
1979-07-24 06:57:24.200 ,2,0,0.,12.0,0.,12.0,0.,12.0,0.,12.0
1979-07-24 06:57:36.200 ,1,1,0.,12.0,0.,12.0,0.,12.0,0.,12.0
1979-07-24 06:57:48.200 ,1,1,0.,12.0,0.,12.0,0.,12.0,0.,12.0
1979-07-24 06:58:00.200 ,1,0,0.,12.0,0.,12.0,0.,12.0,0.,12.0
1979-07-24 06:58:12.200 ,1,0,1.,12.0,0.,12.0,0.,12.0,0.,12.0
1979-07-24 06:58:24.200 ,0,1,0.,12.0,0.,12.0,0.,12.0,0.,12.0
1979-07-24 06:58:36.200 ,0,1,0.,12.0,0.,12.0,0.,12.0,0.,12.0
1979-07-24 06:58:48.200 ,0,0,0.,12.0,0.,12.0,0.,12.0,0.,12.0
1979-07-24 06:59:00.200 ,0,0,0.,12.0,0.,12.0,0.,12.0,0.,12.0
1979-07-24 06:59:12.200 ,0,1,0.,12.0,0.,12.0,0.,12.0,0.,12.0
1979-07-24 06:59:24.200 ,0,1,1.,12.0,0.,12.0,0.,12.0,0.,12.0
1979-07-24 06:59:36.200 ,0,0,0.,12.0,0.,12.0,0.,12.0,0.,12.0
1979-07-24 06:59:48.200 ,0,0,0.,12.0,0.,12.0,0.,12.0,0.,12.0
1979-07-24 07:00:00.200 ,1,1,0.,12.0,0.,12.0,0.,12.0,0.,12.0
1979-07-24 07:00:12.200 ,1,1,0.,12.0,0.,12.0,0.,12.0,0.,12.0
1979-07-24 07:00:24.200 ,1,0,0.,12.0,0.,12.0,0.,12.0,0.,12.0
1979-07-24 07:00:36.200 ,1,0,1.,12.0,0.,12.0,0.,12.0,0.,12.0
1979-07-24 07:00:48.200 ,2,1,0.,12.0,0.,12.0,0.,12.0,0.,12.0
1979-07-24 07:01:00.200 ,2,1,0.,12.0,0.,12.0,0.,12.0,0.,12.0
1979-07-24 07:01:12.200 ,2,0,0.,12.0,0.,12.0,0.,12.0,0.,12.0
1979-07-24 07:01:24.200 ,2,0,0.,12.0,0.,12.0,0.,12.0,0.,12.0
1979-07-24 07:01:36.200 ,3,1,0.,12.0,0.,12.0,0.,12.0,0.,12.0
1979-07-24 07:01:48.200 ,3,1,0.,12.0,0.,12.0,0.,12.0,0.,12.0
1979-07-24 07:02:00.200 ,3,0,0.,12.0,0.,12.0,0.,12.0,0.,12.0
1979-07-24 07:02:12.200 ,3,0,0.,12.0,0.,12.0,0.,12.0,0.,12.0
1979-07-24 07:02:24.200 ,4,1,0.,12.0,0.,12.0,0.,12.0,0.,12.0
1979-07-24 07:02:36.200 ,4,1,0.,12.0,0.,12.0,0.,12.0,0.,12.0
1979-07-24 07:02:48.200 ,4,0,0.,12.0,0.,12.0,0.,12.0,0.,12.0
1979-07-24 07:03:00.200 ,4,0,0.,12.0,0.,12.0,0.,12.0,0.,12.0
1979-07-24 07:03:12.200 ,5,1,0.,12.0,0.,12.0,0.,12.0,0.,12.0
1979-07-24 07:03:24.200 ,5,1,0.,12.0,0.,12.0,0.,12.0,0.,12.0
1979-07-24 07:03:36.200 ,5,0,0.,12.0,0.,12.0,0.,12.0,0.,12.0
1979-07-24 07:03:48.200 ,5,0,0.,12.0,0.,12.0,0.,12.0,0.,12.0
1979-07-24 07:04:00.200 ,6,1,0.,12.0,0.,12.0,0.,12.0,0.,12.0
1979-07-24 07:04:12.200 ,6,1,0.,12.0,0.,12.0,0.,12.0,0.,12.0
1979-07-24 07:04:24.200 ,6,0,0.,12.0,0.,12.0,0.,12.0,0.,12.0
1979-07-24 07:04:36.200 ,6,0,0.,12.0,0.,12.0,0.,12.0,0.,12.0
1979-07-24 07:04:48.200 ,7,1,0.,12.0,0.,12.0,0.,12.0,0.,12.0
1979-07-24 07:05:00.200 ,7,1,0.,12.0,1.,12.0,0.,12.0,0.,12.0
1979-07-24 07:05:12.200 ,7,0,0.,12.0,0.,12.0,0.,12.0,0.,12.0
1979-07-24 07:05:24.200 ,7,0,0.,12.0,0.,12.0,0.,12.0,0.,12.0
1979-07-24 07:05:36.200 ,7,1,0.,12.0,0.,12.0,0.,12.0,0.,12.0
1979-07-24 07:05:48.200 ,7,1,0.,12.0,0.,12.0,0.,12.0,0.,12.0
1979-07-24 07:06:00.200 ,7,0,0.,12.0,0.,12.0,0.,12.0,0.,12.0
1979-07-24 07:06:12.200 ,7,0,0.,12.0,0.,12.0,0.,12.0,0.,12.0
1979-07-24 07:06:24.200 ,6,1,0.,12.0,0.,12.0,0.,12.0,0.,12.0
1979-07-24 07:06:36.200 ,6,1,0.,12.0,0.,12.0,0.,12.0,0.,12.0
1979-07-24 07:06:48.200 ,6,0,0.,12.0,0.,12.0,0.,12.0,0.,12.0
1979-07-24 07:07:00.200 ,6,0,0.,12.0,0.,12.0,0.,12.0,0.,12.0
1979-07-24 07:07:12.200 ,5,1,1.,12.0,0.,12.0,0.,12.0,0.,12.0
1979-07-24 07:07:24.200 ,5,1,0.,12.0,0.,12.0,0.,12.0,0.,12.0
1979-07-24 07:07:36.200 ,5,0,0.,12.0,0.,12.0,0.,12.0,0.,12.0
1979-07-24 07:07:48.200 ,5,0,0.,12.0,0.,12.0,0.,12.0,0.,12.0
1979-07-24 07:08:00.200 ,4,1,0.,12.0,0.,12.0,0.,12.0,0.,12.0
1979-07-24 07:08:12.200 ,4,1,0.,12.0,0.,12.0,0.,12.0,0.,12.0
1979-07-24 07:08:24.200 ,4,0,0.,12.0,0.,12.0,0.,12.0,0.,12.0
1979-07-24 07:08:36.200 ,4,0,0.,12.0,0.,12.0,0.,12.0,0.,12.0
1979-07-24 07:08:48.200 ,3,1,0.,12.0,0.,12.0,0.,12.0,0.,12.0
1979-07-24 07:09:00.200 ,3,1,0.,12.0,0.,12.0,0.,12.0,0.,12.0
1979-07-24 07:09:12.200 ,3,0,0.,12.0,0.,12.0,0.,12.0,0.,12.0
1979-07-24 07:09:24.200 ,3,0,0.,12.0,0.,12.0,0.,12.0,0.,12.0
1979-07-24 07:09:36.200 ,2,1,0.,12.0,0.,12.0,0.,12.0,0.,12.0
1979-07-24 07:09:48.200 ,2,1,0.,12.0,0.,12.0,0.,12.0,0.,12.0
1979-07-24 07:10:00.200 ,2,0,2.,12.0,0.,12.0,0.,12.0,0.,12.0
1979-07-24 07:10:12.200 ,2,0,0.,12.0,0.,12.0,0.,12.0,0.,12.0
1979-07-24 07:10:24.200 ,1,1,0.,12.0,0.,12.0,0.,12.0,0.,12.0
1979-07-24 07:10:36.200 ,1,1,0.,12.0,0.,12.0,0.,12.0,0.,12.0
1979-07-24 07:10:48.200 ,1,0,0.,12.0,0.,12.0,0.,12.0,0.,12.0
1979-07-24 07:11:00.200 ,1,0,0.,12.0,0.,12.0,0.,12.0,0.,12.0
1979-07-24 07:11:12.200 ,0,1,0.,12.0,0.,12.0,0.,12.0,0.,12.0
1979-07-24 07:11:24.200 ,0,1,0.,12.0,0.,12.0,0.,12.0,0.,12.0
1979-07-24 07:11:36.200 ,0,0,0.,12.0,0.,12.0,0.,12.0,0.,12.0
1979-07-24 07:11:48.200 ,0,0,0.,12.0,0.,12.0,0.,12.0,0.,12.0
1979-07-24 07:12:00.200 ,0,1,0.,12.0,0.,12.0,0.,12.0,0.,12.0
1979-07-24 07:12:12.200 ,0,1,0.,12.0,0.,12.0,0.,12.0,0.,12.0
1979-07-24 07:12:24.200 ,0,0,0.,12.0,0.,12.0,0.,12.0,0.,12.0
1979-07-24 07:12:36.200 ,0,0,0.,12.0,0.,12.0,0.,12.0,0.,12.0
1979-07-24 07:12:48.200 ,1,1,0.,12.0,0.,12.0,0.,12.0,0.,12.0
1979-07-24 07:13:00.200 ,1,1,0.,12.0,0.,12.0,0.,12.0,0.,12.0
1979-07-24 07:13:12.200 ,1,0,1.,12.0,0.,12.0,0.,12.0,0.,12.0
1979-07-24 07:13:24.200 ,1,0,0.,12.0,0.,12.0,0.,12.0,0.,12.0
1979-07-24 07:13:36.200 ,2,1,1.,12.0,0.,12.0,0.,12.0,0.,12.0
1979-07-24 07:13:48.200 ,2,1,0.,12.0,0.,12.0,0.,12.0,0.,12.0
1979-07-24 07:14:00.200 ,2,0,0.,12.0,0.,12.0,0.,12.0,0.,12.0
1979-07-24 07:14:12.200 ,2,0,0.,12.0,0.,12.0,0.,12.0,0.,12.0
1979-07-24 07:14:24.200 ,3,1,0.,12.0,0.,12.0,0.,12.0,0.,12.0
1979-07-24 07:14:36.200 ,3,1,0.,12.0,0.,12.0,0.,12.0,0.,12.0
1979-07-24 07:14:48.200 ,3,0,0.,12.0,0.,12.0,0.,12.0,0.,12.0
1979-07-24 07:15:00.200 ,3,0,0.,12.0,0.,12.0,0.,12.0,0.,12.0
1979-07-24 07:15:12.200 ,4,1,0.,12.0,0.,12.0,0.,12.0,0.,12.0
1979-07-24 07:15:24.200 ,4,1,0.,12.0,0.,12.0,0.,12.0,0.,12.0
1979-07-24 07:15:36.200 ,4,0,0.,12.0,0.,12.0,0.,12.0,0.,12.0
1979-07-24 07:15:48.200 ,4,0,0.,12.0,0.,12.0,0.,12.0,0.,12.0
1979-07-24 07:16:00.200 ,5,1,0.,12.0,0.,12.0,0.,12.0,0.,12.0
1979-07-24 07:16:12.200 ,5,1,0.,12.0,0.,12.0,0.,12.0,0.,12.0
1979-07-24 07:16:24.200 ,5,0,0.,12.0,0.,12.0,0.,12.0,0.,12.0
1979-07-24 07:16:36.200 ,5,0,0.,12.0,0.,12.0,0.,12.0,0.,12.0
1979-07-24 07:16:48.200 ,6,1,0.,12.0,0.,12.0,0.,12.0,0.,12.0
1979-07-24 07:17:00.200 ,6,1,0.,12.0,0.,12.0,0.,12.0,0.,12.0
1979-07-24 07:17:12.190 ,6,0,0.,12.0,0.,12.0,0.,12.0,0.,12.0
1979-07-24 07:17:24.190 ,6,0,0.,12.0,0.,12.0,0.,12.0,0.,12.0
1979-07-24 07:17:36.190 ,7,1,0.,12.0,0.,12.0,0.,12.0,0.,12.0
1979-07-24 07:17:48.190 ,7,1,0.,12.0,0.,12.0,0.,12.0,0.,12.0
1979-07-24 07:18:00.190 ,7,0,0.,12.0,0.,12.0,0.,12.0,0.,12.0